sat.trackr.live / text

‹ back to catalog

STARLINK-36330

NORAD 67737 · 2026-026S

PAYLOAD ACTIVE UNKNOWN

§ Identity

Operator
Country
US
Launch date
2026-02-11
Launch site
AFWTR
Launch vehicle
Mass (kg)
RCS (m²)

Purposes: comms

External: N2YO · Heavens-Above · Gunter

§ Orbital elements

Epoch: 2026-09-19T09:34:04.966176Z

Period
93.91 min
Inclination
97.2857°
Eccentricity
0.0000572
Mean motion
15.33452634 rev/d
Perigee alt
465.1 km
Apogee alt
465.9 km
Semi-major
6,843.7 km
B*
4.2562e-4
RAAN
314.2736°
Arg perigee
272.1654°
Mean anomaly
87.9523°
Rev number
3,381

§ Raw data

STARLINK-363301 67737U 26026S   26262.39866859  .00013694  00000+0  42562-3 0  99922 67737  97.2857 314.2736 0000572 272.1654  87.9523 15.33452634 33812

JSON: /api/v1/satellites/67737 · /tle

For live sub-satellite position, see the globe view (requires WebGL).

§ Visibility from observer

Set your observer location to see the next 7 days of passes ≥ 10°. The values pass through the URL so the page stays shareable.

No JS? Fill the form by hand. The geolocation button needs JavaScript.